******** Week 146 almanac for PRN-1 ******** ID: 1 Health: 0 Eccentricity: 0.01131725311 Time of Applicability(s): 589824 Orbital Inclination(rad): 0.986489862 Rate of Right Ascen(r/s): -8.057478483e-09 SQRT(A) (m 1/2): 5153.624512 Right Ascen at Week(rad): -1.538258408 Argument of Perigee(rad): 0.8828055693 Mean Anom(rad): -1.770070019 Af0(s): 0.0003512122314 Af1(s/s): -1.091394e-11 week: 146 ******** Week 146 almanac for PRN-2 ******** ID: 2 Health: 0 Eccentricity: 0.02068138123 Time of Applicability(s): 589824 Orbital Inclination(rad): 0.9648343676 Rate of Right Ascen(r/s): -8.206056101e-09 SQRT(A) (m 1/2): 5153.632812 Right Ascen at Week(rad): -1.627221803 Argument of Perigee(rad): -1.45043988 Mean Anom(rad): -1.614205437 Af0(s): -0.0005132522095 Af1(s/s): 0 week: 146 ******** Week 146 almanac for PRN-3 ******** ID: 3 Health: 0 Eccentricity: 0.003854751587 Time of Applicability(s): 589824 Orbital Inclination(rad): 0.9725881612 Rate of Right Ascen(r/s): -7.623174678e-09 SQRT(A) (m 1/2): 5153.651367 Right Ascen at Week(rad): -0.502714641 Argument of Perigee(rad): 0.9691009768 Mean Anom(rad): -2.93240726 Af0(s): -7.762845459e-05 Af1(s/s): -1.455192e-11 week: 146 ******** Week 146 almanac for PRN-4 ******** ID: 4 Health: 0 Eccentricity: 0.001680850983 Time of Applicability(s): 589824 Orbital Inclination(rad): 0.9612750528 Rate of Right Ascen(r/s): -7.726036106e-09 SQRT(A) (m 1/2): 5153.602051 Right Ascen at Week(rad): 0.5780789374 Argument of Perigee(rad): -3.087408229 Mean Anom(rad): 0.03675486879 Af0(s): -0.0001522422119 Af1(s/s): 3.637979e-12 week: 146 ******** Week 146 almanac for PRN-5 ******** ID: 5 Health: 0 Eccentricity: 0.005866527557 Time of Applicability(s): 589824 Orbital Inclination(rad): 0.9595553166 Rate of Right Ascen(r/s): -7.783181343e-09 SQRT(A) (m 1/2): 5153.614746 Right Ascen at Week(rad): -0.5428835159 Argument of Perigee(rad): 1.011759949 Mean Anom(rad): 0.8801094932 Af0(s): -5.50182251e-05 Af1(s/s): 0 week: 146 ******** Week 146 almanac for PRN-6 ******** ID: 6 Health: 0 Eccentricity: 0.002655029297 Time of Applicability(s): 589824 Orbital Inclination(rad): 0.9858726745 Rate of Right Ascen(r/s): -8.057478483e-09 SQRT(A) (m 1/2): 5153.613281 Right Ascen at Week(rad): -1.546530519 Argument of Perigee(rad): -0.9813623369 Mean Anom(rad): -1.41835062 Af0(s): 0.0001462128174 Af1(s/s): 1.091394e-11 week: 146 ******** Week 146 almanac for PRN-7 ******** ID: 7 Health: 0 Eccentricity: 0.01547145843 Time of Applicability(s): 589824 Orbital Inclination(rad): 0.9505311952 Rate of Right Ascen(r/s): -8.034620388e-09 SQRT(A) (m 1/2): 5153.629883 Right Ascen at Week(rad): 1.597323409 Argument of Perigee(rad): -2.293765668 Mean Anom(rad): -2.434840593 Af0(s): 0.0002419294556 Af1(s/s): 3.637979e-12 week: 146 ******** Week 146 almanac for PRN-8 ******** ID: 8 Health: 0 Eccentricity: 0.007218837738 Time of Applicability(s): 589824 Orbital Inclination(rad): 0.965175918 Rate of Right Ascen(r/s): -7.954617056e-09 SQRT(A) (m 1/2): 5153.668945 Right Ascen at Week(rad): -2.617900752 Argument of Perigee(rad): 0.09114152847 Mean Anom(rad): 0.5139850556 Af0(s): -4.295943603e-05 Af1(s/s): 0 week: 146 ******** Week 146 almanac for PRN-9 ******** ID: 9 Health: 0 Eccentricity: 0.002303600311 Time of Applicability(s): 589824 Orbital Inclination(rad): 0.9542942418 Rate of Right Ascen(r/s): -7.806039438e-09 SQRT(A) (m 1/2): 5153.574707 Right Ascen at Week(rad): 0.5252693268 Argument of Perigee(rad): 1.868110716 Mean Anom(rad): 0.8556601763 Af0(s): -0.00028112052 Af1(s/s): 0 week: 146 ******** Week 146 almanac for PRN-10 ******** ID: 10 Health: 0 Eccentricity: 0.007491111755 Time of Applicability(s): 589824 Orbital Inclination(rad): 0.9724143899 Rate of Right Ascen(r/s): -7.611745631e-09 SQRT(A) (m 1/2): 5153.640137 Right Ascen at Week(rad): -0.5055069654 Argument of Perigee(rad): -2.525632332 Mean Anom(rad): 2.493922821 Af0(s): -0.0002419294556 Af1(s/s): -1.091394e-11 week: 146 ******** Week 146 almanac for PRN-11 ******** ID: 11 Health: 255 Eccentricity: 0.0002908706665 Time of Applicability(s): 589824 Orbital Inclination(rad): 0.9615986269 Rate of Right Ascen(r/s): -8.274630386e-09 SQRT(A) (m 1/2): 5153.713867 Right Ascen at Week(rad): -1.494074818 Argument of Perigee(rad): 2.845698771 Mean Anom(rad): 0.3856006756 Af0(s): -7.310640869e-05 Af1(s/s): -4.001777e-11 week: 146 ******** Week 146 almanac for PRN-12 ******** ID: 12 Health: 0 Eccentricity: 0.008625984192 Time of Applicability(s): 589824 Orbital Inclination(rad): 0.9706886615 Rate of Right Ascen(r/s): -7.554600394e-09 SQRT(A) (m 1/2): 5153.569336 Right Ascen at Week(rad): 2.710038094 Argument of Perigee(rad): 1.239172601 Mean Anom(rad): -3.091739777 Af0(s): -0.0001288783081 Af1(s/s): -7.275958e-12 week: 146 ******** Week 146 almanac for PRN-13 ******** ID: 13 Health: 0 Eccentricity: 0.005797386169 Time of Applicability(s): 589824 Orbital Inclination(rad): 0.9686573354 Rate of Right Ascen(r/s): -7.657461821e-09 SQRT(A) (m 1/2): 5153.619141 Right Ascen at Week(rad): 0.6778150277 Argument of Perigee(rad): 0.9667370884 Mean Anom(rad): -0.08244584978 Af0(s): 0.0001997236938 Af1(s/s): 7.275958e-12 week: 146 ******** Week 146 almanac for PRN-14 ******** ID: 14 Health: 0 Eccentricity: 0.001359462738 Time of Applicability(s): 589824 Orbital Inclination(rad): 0.9540725337 Rate of Right Ascen(r/s): -7.668890868e-09 SQRT(A) (m 1/2): 5153.600586 Right Ascen at Week(rad): 2.679022171 Argument of Perigee(rad): 3.035325162 Mean Anom(rad): -3.046922896 Af0(s): -6.104761963e-05 Af1(s/s): -3.637979e-12 week: 146 ******** Week 146 almanac for PRN-15 ******** ID: 15 Health: 0 Eccentricity: 0.01391887665 Time of Applicability(s): 589824 Orbital Inclination(rad): 0.9301999577 Rate of Right Ascen(r/s): -7.977475151e-09 SQRT(A) (m 1/2): 5153.671875 Right Ascen at Week(rad): 0.4196883054 Argument of Perigee(rad): 1.073173484 Mean Anom(rad): -0.4920269595 Af0(s): -6.933803711e-05 Af1(s/s): 3.637979e-12 week: 146 ******** Week 146 almanac for PRN-16 ******** ID: 16 Health: 0 Eccentricity: 0.01270914078 Time of Applicability(s): 589824 Orbital Inclination(rad): 0.9706527088 Rate of Right Ascen(r/s): -7.543171346e-09 SQRT(A) (m 1/2): 5153.553711 Right Ascen at Week(rad): 2.728658958 Argument of Perigee(rad): 0.7006741877 Mean Anom(rad): 1.336168049 Af0(s): -0.0003655320435 Af1(s/s): -3.637979e-12 week: 146 ******** Week 146 almanac for PRN-17 ******** ID: 17 Health: 0 Eccentricity: 0.01366710663 Time of Applicability(s): 589824 Orbital Inclination(rad): 0.9802340966 Rate of Right Ascen(r/s): -7.851755628e-09 SQRT(A) (m 1/2): 5153.707031 Right Ascen at Week(rad): -2.536279192 Argument of Perigee(rad): -1.502488118 Mean Anom(rad): 0.418654666 Af0(s): 0.0004491898926 Af1(s/s): 3.637979e-12 week: 146 ******** Week 146 almanac for PRN-18 ******** ID: 18 Health: 0 Eccentricity: 0.002095222473 Time of Applicability(s): 589824 Orbital Inclination(rad): 0.9702811979 Rate of Right Ascen(r/s): -8.206056101e-09 SQRT(A) (m 1/2): 5153.575195 Right Ascen at Week(rad): -1.530188156 Argument of Perigee(rad): 3.106616694 Mean Anom(rad): -1.574123822 Af0(s): 0.0001982163452 Af1(s/s): -7.275958e-12 week: 146 ******** Week 146 almanac for PRN-19 ******** ID: 19 Health: 0 Eccentricity: 0.008953094482 Time of Applicability(s): 589824 Orbital Inclination(rad): 0.9789457925 Rate of Right Ascen(r/s): -7.897471818e-09 SQRT(A) (m 1/2): 5153.638672 Right Ascen at Week(rad): -2.49139003 Argument of Perigee(rad): 2.000634522 Mean Anom(rad): 2.825232337 Af0(s): 8.893356934e-05 Af1(s/s): 3.637979e-12 week: 146 ******** Week 146 almanac for PRN-20 ******** ID: 20 Health: 0 Eccentricity: 0.005246639252 Time of Applicability(s): 589824 Orbital Inclination(rad): 0.9416868372 Rate of Right Ascen(r/s): -8.000333246e-09 SQRT(A) (m 1/2): 5153.688965 Right Ascen at Week(rad): -0.6565894673 Argument of Perigee(rad): 3.119049204 Mean Anom(rad): -0.7317964708 Af0(s): 0.0004084914795 Af1(s/s): 0 week: 146 ******** Week 146 almanac for PRN-21 ******** ID: 21 Health: 0 Eccentricity: 0.02455663681 Time of Applicability(s): 589824 Orbital Inclination(rad): 0.9590819397 Rate of Right Ascen(r/s): -8.251772291e-09 SQRT(A) (m 1/2): 5153.537598 Right Ascen at Week(rad): -1.628746796 Argument of Perigee(rad): -1.016608691 Mean Anom(rad): 0.5913559606 Af0(s): 0.0001243562622 Af1(s/s): 0 week: 146 ******** Week 146 almanac for PRN-22 ******** ID: 22 Health: 0 Eccentricity: 0.01279878616 Time of Applicability(s): 589824 Orbital Inclination(rad): 0.9613948951 Rate of Right Ascen(r/s): -7.714607058e-09 SQRT(A) (m 1/2): 5153.594727 Right Ascen at Week(rad): 0.6263761128 Argument of Perigee(rad): -1.876091835 Mean Anom(rad): 0.2815071961 Af0(s): 0.0001627936523 Af1(s/s): 7.275958e-12 week: 146 ******** Week 146 almanac for PRN-23 ******** ID: 23 Health: 0 Eccentricity: 0.001978874207 Time of Applicability(s): 589824 Orbital Inclination(rad): 0.9674529208 Rate of Right Ascen(r/s): -7.668890868e-09 SQRT(A) (m 1/2): 5153.660156 Right Ascen at Week(rad): -0.5302734897 Argument of Perigee(rad): 2.944889579 Mean Anom(rad): -2.462189717 Af0(s): 5.275720215e-06 Af1(s/s): -3.637979e-12 week: 146 ******** Week 146 almanac for PRN-24 ******** ID: 24 Health: 0 Eccentricity: 0.01232051849 Time of Applicability(s): 589824 Orbital Inclination(rad): 0.9340289175 Rate of Right Ascen(r/s): -8.194627053e-09 SQRT(A) (m 1/2): 5153.625 Right Ascen at Week(rad): 1.514819885 Argument of Perigee(rad): 0.8046253546 Mean Anom(rad): -1.46876039 Af0(s): 0.0002185655518 Af1(s/s): 0 week: 146 ******** Week 146 almanac for PRN-25 ******** ID: 25 Health: 0 Eccentricity: 0.01043701172 Time of Applicability(s): 589824 Orbital Inclination(rad): 0.9580453042 Rate of Right Ascen(r/s): -7.668890868e-09 SQRT(A) (m 1/2): 5153.672363 Right Ascen at Week(rad): 2.633544659 Argument of Perigee(rad): 0.9740542068 Mean Anom(rad): 2.948990431 Af0(s): 0.0002200729004 Af1(s/s): 7.275958e-12 week: 146 ******** Week 146 almanac for PRN-26 ******** ID: 26 Health: 0 Eccentricity: 0.00684261322 Time of Applicability(s): 589824 Orbital Inclination(rad): 0.9388645523 Rate of Right Ascen(r/s): -7.840326581e-09 SQRT(A) (m 1/2): 5153.640625 Right Ascen at Week(rad): 2.586878462 Argument of Perigee(rad): 0.3571452571 Mean Anom(rad): 2.2988687 Af0(s): 0.0001409370972 Af1(s/s): 3.637979e-12 week: 146 ******** Week 146 almanac for PRN-27 ******** ID: 27 Health: 0 Eccentricity: 0.01012563705 Time of Applicability(s): 589824 Orbital Inclination(rad): 0.973858489 Rate of Right Ascen(r/s): -7.886042771e-09 SQRT(A) (m 1/2): 5153.607422 Right Ascen at Week(rad): -2.59861701 Argument of Perigee(rad): 0.63299515 Mean Anom(rad): 0.4556308684 Af0(s): 7.461375732e-05 Af1(s/s): 1.818989e-11 week: 146 ******** Week 146 almanac for PRN-29 ******** ID: 29 Health: 0 Eccentricity: 0.001793384552 Time of Applicability(s): 589824 Orbital Inclination(rad): 0.982223478 Rate of Right Ascen(r/s): -7.863184676e-09 SQRT(A) (m 1/2): 5153.717285 Right Ascen at Week(rad): -2.523307017 Argument of Perigee(rad): 2.268440753 Mean Anom(rad): 0.5764052655 Af0(s): -0.0003745761353 Af1(s/s): -3.637979e-12 week: 146 ******** Week 146 almanac for PRN-30 ******** ID: 30 Health: 0 Eccentricity: 0.005449771881 Time of Applicability(s): 589824 Orbital Inclination(rad): 0.9357007169 Rate of Right Ascen(r/s): -8.194627053e-09 SQRT(A) (m 1/2): 5153.514648 Right Ascen at Week(rad): 1.610722147 Argument of Perigee(rad): -2.750050051 Mean Anom(rad): -2.409011592 Af0(s): -0.0004032157593 Af1(s/s): -3.637979e-12 week: 146 ******** Week 146 almanac for PRN-31 ******** ID: 31 Health: 0 Eccentricity: 0.01046943665 Time of Applicability(s): 589824 Orbital Inclination(rad): 0.9547616266 Rate of Right Ascen(r/s): -7.954617056e-09 SQRT(A) (m 1/2): 5153.614258 Right Ascen at Week(rad): 1.615358544 Argument of Perigee(rad): 0.3716158342 Mean Anom(rad): -2.887290398 Af0(s): -0.0001281246338 Af1(s/s): 0 week: 146 ******** Week 146 almanac for PRN-32 ******** ID: 32 Health: 0 Eccentricity: 0.005492687225 Time of Applicability(s): 589824 Orbital Inclination(rad): 0.9581531623 Rate of Right Ascen(r/s): -7.737465153e-09 SQRT(A) (m 1/2): 5153.712891 Right Ascen at Week(rad): 0.5363978032 Argument of Perigee(rad): -2.367082534 Mean Anom(rad): 1.122262367 Af0(s): -4.59741333e-05 Af1(s/s): -7.275958e-12 week: 146